Tracking 30313 objects as of 22-Apr-2025
HD Live streaming from Space Station
objects crossing your sky now

THORAD DELTA 1 DEB

Track THORAD DELTA 1 DEB now!
10-day predictions


NORAD ID: 8395
Int'l Code: 1974-089BX
Perigee: 1,318.1 km
Apogee: 1,450.6 km
Inclination: 100.9 °
Period: 113.3 minutes
Semi major axis: 7755 km
RCS: 0.0263 m2 (small)
Launch date: November 15, 1974
Source: United States (US)
Launch site: AIR FORCE WESTERN TEST RANGE (AFWTR)

Note: This is SATELLITE DEBRIS
Your satellite tracking list
Your tracking list is empty




NASA's NSSDC Master Catalog

Two Line Element Set (TLE):
1  8395U 74089BX  25106.72349194  .00002320  00000-0  11540-1 0  9995
2  8395 100.8697  95.5091 0085450 349.6928 195.8606 12.71155624305759
Source of the keplerian elements: AFSPC